Regional Weather Roundup
Issued by NWS Wakefield, VA

Home | Current Version | Previous Version | Text Only | Print | Product List | Glossary On
Versions: 1 2 3 4 5 6 7 8 9 10 11 12 13 14 15 16 17 18 19 20 21 22 23 24 25 26 27 28 29 30 31 32 33 34 35 36 37 38 39 40 41 42 43 44 45 46 47 48 49 50
000
ASUS41 KAKQ 300410
RWRAKQ

REGIONAL WEATHER ROUNDUP
NATIONAL WEATHER SERVICE WAKEFIELD VA
1200 AM EDT SAT AUG 30 2014

Note: "fair" indicates few or no clouds below 12,000 feet with no
significant weather and/or obstructions to visibility. * = Denotes
station may not report precipitation (e.g., rain,snow,etc.),
thunder or fog.

VAZ042-051-052>054-056-300500-
NORTHERN VIRGINIA

CITY           SKY/WX    TMP DP  RH WIND       PRES   REMARKS
WASH NATIONAL  MOCLDY    73  61  65 SE8       30.22S
DULLES         MOCLDY    66  56  70 SE3       30.22R
FORT BELVOIR   CLOUDY    63  59  88 CALM      30.22S
QUANTICO       PTCLDY    67  62  84 CALM      30.22S
FREDERICKSBRG* PTCLDY    64  60  85 CALM      30.21R
STAFFORD*      CLEAR     60  60 100 CALM      30.25S
WARRENTON      CLOUDY    64  64 100 CALM      30.21R
CULPEPER*      CLOUDY   N/A N/A N/A CALM      30.21S
MANASSAS*      CLOUDY    64  64 100 CALM      30.21S
LEESBURG*      MOCLDY    64  61  88 CALM      30.23S
WINCHESTER     CLOUDY    66  59  77 CALM      30.21S
$$

VAZ048-049-060>072-079>083-300500-
CENTRAL AND SOUTH CENTRAL VIRGINIA...AND NORTH CENTRAL NORTH CAROLINA

CITY           SKY/WX    TMP DP  RH WIND       PRES   REMARKS
RICHMOND       MOCLDY    71  63  75 CALM      30.20S
CHESTERFIELD*  CLOUDY   N/A N/A N/A SE7       30.21S
PETERSBURG*    CLOUDY    72  60  65 CALM      30.21S
HANOVER        MOCLDY    67  62  84 CALM      30.22S
TAPPAHANNOCK*  CLOUDY    68  60  76 CALM      30.22S
CHARLOTTSVILLE CLOUDY    68  63  84 NW5       30.21R
ORANGE*        CLOUDY    70  59  68 E5        30.22S
LOUISA*        MOCLDY    70  61  73 SE3       30.20S
FARMVILLE*     CLOUDY    75  72  88 CALM      30.18
SOUTH HILL*    CLOUDY    75  72  88 CALM      30.25R
ROANOKE RAPIDS CLOUDY    70  66  88 CALM      30.20R
RALEIGH        CLOUDY    76  69  79 SE7       30.19R
$$

VAZ088>098-300500-
SOUTHEAST VIRGINIA

CITY           SKY/WX    TMP DP  RH WIND       PRES   REMARKS
NORFOLK        CLOUDY    73  63  70 E5        30.20S
VIRGINIA BEACH MOCLDY    72  64  76 E6        30.19F
NORFOLK NAVAL  MOCLDY    74  63  68 E5        30.21S
WEST POINT*    MOCLDY    69  61  77 E5        30.22S
NEWPORT NEWS   CLOUDY    70  63  78 NE3       30.20S
LANGLEY AFB    CLEAR     73  62  66 SE5       30.20R
FORT EUSTIS    CLOUDY    73  59  62 E2        30.19R
WILLIAMSBURG*  MOCLDY    75  64  69 SE7       30.21S
FRANKLIN*      CLOUDY    72  64  78 E5        30.20R
WAKEFIELD      CLOUDY    73  62  68 E3        30.20S
$$

VAZ020-022-025-037-045-300500-
WESTERN AND SOUTHWEST VIRGINIA

CITY           SKY/WX    TMP DP  RH WIND       PRES   REMARKS
STAUNTON*      CLOUDY    69  61  76 CALM      30.23S
HOT SPRINGS VA CLOUDY    62  62 100 S8        30.34R FOG
LYNCHBURG      CLOUDY    73  69  87 S3        30.22R
DANVILLE       CLOUDY    75  70  84 CALM      30.19S
MARTINSVILLE   CLOUDY    70  70 100 CALM      30.22S FOG
ROANOKE        CLOUDY    74  67  78 E5        30.23R
BLACKSBURG     CLEAR     68  68 100 E6        30.26F
DUBLIN*        MOCLDY    69  68  99 CALM      30.25F
MARION*        PTCLDY   N/A N/A N/A E3        30.26F
HILLSVILLE*    PTCLDY    67  66  98 SE3       30.26F FOG
RICHLANDS*     CLOUDY    75  67  75 SE5       30.22R
WISE*          PTCLDY    70  70 100 S7        30.22R
ABINGDON*      PTCLDY    71  69  94 CALM      30.19S
$$

MDZ021>025-VAZ099-100-300500-
SOUTHERN MARYLAND AND THE DELMARVA PENINSULA

CITY           SKY/WX    TMP DP  RH WIND       PRES   REMARKS
PATUXENT RIVER CLEAR     71  61  70 SE9       30.21S
BAY BRIDGE APT   N/A     70  61  73 SE7       30.23S
LEONARDTOWN    CLEAR     66  59  77 CALM      30.23S
DOVER          CLEAR     67  61  83 SE6       30.22R
GEORGETOWN     CLEAR     63  59  87 E8        30.23S
EASTON         CLEAR     65  63  90 CALM      30.26F
CAMBRIDGE      CLEAR     63  59  88 CALM      30.22S
SALISBURY      CLEAR     63  58  83 CALM      30.23S
OCEAN CITY     CLEAR     70  61  73 SE6       30.22S
WALLOPS ISLAND CLEAR     66  59  78 CALM      30.22F
ACCOMACK*      CLEAR     61  57  88 E3        30.21F
$$

NCZ012>017-030>032-300500-
EASTERN NORTH CAROLINA

CITY           SKY/WX    TMP DP  RH WIND       PRES   REMARKS
ELIZABETH CITY CLOUDY    74  66  76 E7        30.20R
AHOSKIE*       CLEAR     70  65  84 CALM      30.20R
EDENTON*       CLOUDY    74  67  77 E5        30.19R
CURRITUCK*     CLOUDY    75  62  63 E6        30.20S
KILL DEVIL HLS PTCLDY    75  65  72 E7        30.18S
MANTEO         CLOUDY    75  67  76 E10       30.19S
CAPE HATTERAS  MOCLDY    77  75  93 E10       30.16F
GOLDSBORO      CLEAR     73  73  98 E3        30.16R
WASHINGTON     CLEAR     71  67  88 CALM      30.19R
GREENVILLE     MOCLDY    72  68  88 CALM      30.20R
NEW BERN       CLEAR     76  70  82 NE5       30.19R
WILMINGTON     CLEAR     73  71  93 NE5       30.16R
$$

VAZ048-300500-
ELSEWHERE

CITY           SKY/WX    TMP DP  RH WIND       PRES   REMARKS
HARRISBURG PA  PTCLDY    65  58  78 SE6       30.21S
BALTIMORE      MOCLDY    66  59  78 SE3       30.22S
ANNAPOLIS      PTCLDY    71  63  75 SE16      30.22S
ANDREWS AFB    MOCLDY    64  61  88 E8        30.22S
WILMINGTON DE  CLEAR     67  59  75 SE7       30.25R
PHILADELPHIA   PTCLDY    68  59  73 S5        30.25R
WILDWOOD NJ*   CLEAR     61  55  82 CALM      30.25S
ATLANTIC CITY  CLEAR     58  55  90 CALM      30.25R
HENDERSON NC   CLOUDY    74  65  75 SE5       30.20R
GREENSBORO     CLOUDY    75  71  87 E5        30.18S
ROCKY MOUNT    CLOUDY    73  67  81 CALM      30.19S
FAYETTEVILLE   PTCLDY    78  70  76 CALM      30.16R
CHARLOTTE      PTCLDY    78  71  79 E7        30.16S
$$

VAZ100-300500-
MARINE

STATION/POSITION TIME  TEMP    WIND        PRES    WAVE   SWELL
                       AIR SEA DIR/SP/G            HT/PER HT/PER
                 (UTC) (F)     (DEG/KT/KT) (MB)    (FT/S) (FT/S)
44066 TX TWR #4  0400   70 72  120/ 12/ 14 1023.9R   3/ 9   3/ 9
CAPE MAY NJ      0400   67 79   80/  3/  4 1023.4F
LEWES DE         0400   71 77  120/  7/  9 1023.3S
15NM E FENWICK I 0400   72 73              1023.5R   3/ 8
OCEAN-CITY-INLET 0400   72 76  110/  5/  6 1023.1R
WACHAPREAGUE VA  0400   72 80  100/  4/  5 1023.0F
THOMAS POINT MD  0400   71 77  140/ 12/ 15 1024.3R
GOOSES REEF MD   0400   72     150/ 12/ 14 1023.6S
COVE POINT MD    0400   72     160/ 13/ 16 1023.1R
SOLOMONS ISLAND  0400      80                N/A
BISHOPS HEAD MD  0400   71 78  120/ 11/ 13 1022.7S
PINEY POINT MD   0400          170/ 11/ 13   N/A
POTOMAC MD       0400   73     130/ 12/ 14 1022.3F
CAMBRIDGE MD     0400   68 78  130/  3/  6 1023.1F
LEWISETTA VA     0400   70 78  150/  5/  5 1022.8S
RAPPAHANNOCK LGT 0400           90/  9/ 10 1023.4R
STINGRAY PT      0400   74     120/ 10/ 14   N/A
YORK RVR RNG VA  0400   75     140/ 10/ 12 1022.3R
YORKTOWN VA      0400   75 80  140/  4/  5 1022.4R
JAMESTOWN VA     0400   74     130/ 12/ 14   N/A
DOMINION TERM VA 0400   75     110/  9/ 11 1022.6S
KIPTOPEKE VA     0400      81  110/  4/  6   N/A
CHES BAY BRIDGE  0400   75 78  100/  6/  9 1022.2S
CAPE HENRY VA    0400   75     120/ 10/ 12 1021.4S
CHESAPEAKE LGHT  0300   74     110/ 10/ 12 1023.3R
WILLOUBY STN VA  0400   74      70/  4/  6 1021.3F
S CRANEY ISL VA  0400           90/  5/  6 1022.3S
CAPE HENRY BUOY  0400      77                N/A     2/ 9
1ST LANDING BUOY 0400   76     110/ 10/ 12 1022.2S
CAPE CHARLES BUO 0400      76                N/A     2/ 8   2/ 8
OFFSHORE WE BUOY 0400      75                N/A     3/ 8   2/ 8
64NM E OF VA BCH 0400   76 76   90/  8/ 10 1022.3R   3/ 8   2/ 8
DUCK PIER NC     0400   76 78   80/ 12/ 13 1021.6R
44056 DUCK FRF   0400                        N/A     3/ 8
OREGON INLET NC  0400   76 79   50/  7/ 11 1022.0R
HATTERAS NC      0400   80 82  110/  7/ 12 1021.8S
DIAMOND SHLS NC  0400   79      50/  6/  8 1021.2R   4/ 8   3/ 8
CAPE LOOKOUT NC  0300   80      80/  3/  3 1021.0R
$$



USA.gov is the U.S. government's official web portal to all federal, state and local government web resources and services.